Location: Heidgraben
(53.7081°N, 9.6576°E)
Time: 03:05:09
(UTC+00:00)

Terra - Pass Details

Date: 05 July 2020
Orbit: 701 x 703 km, 98.2° (Epoch: 06 August)

Event Time Altitude Azimuth Distance (km) Brightness Sun altitude
Exits shadow 22:10:29 - 206° (SSW) 2,408 4.2 -11.9°
Reaches altitude 10° 22:11:11 10° 211° (SSW) 2,170 4.0 -11.9°
Maximum altitude 22:15:10 26° 268° (W) 1,377 3.5 -12.1°
Drops below altitude 10° 22:19:10 10° 324° (NW) 2,184 5.6 -12.3°
Sets 22:21:47 0° 338° (NNW) 3,108 7.2 -12.4°
